ISS (ZARYA) (25544 NORAD) Tracking and Keplerian Element Data

This shows tracking and keplerian element data for the satellite.

Feedback or suggestion? Click here.




ElementValue
Catalog25544
NameISS (ZARYA)
Epoch Orbit49451
Epoch Day35.06542019
Epoch Year2025
RAAN246.383
Inclination51.6385
Eccentricity0.0003595
Argument of Perigee271.3736
Mean Anonmoly238.6066
Mean Motion15.4978258
Decay Rate0.00017864
L11 25544U 98067A 25035.06542019 .00017864 00000+0 32270-3 0 9994
L22 25544 51.6385 246.3830 0003595 271.3736 238.6066 15.49782580494510



Live tracking and technical data element details for ISS (ZARYA) (NORAD 25544). ISS (ZARYA) can be tracked NOW for your location showing map with azimuth and elevation plus other details from your city location.







IsCatalogInMostPopularTable: catalog: 25544, numindb: 180941
Update: records affected: 1



GetName: 25544 ISS (ZARYA)

Hit Count: updated at: Thu, 19 Jun 2025 09:36:42 GMT